EW5171 Weather Reports


time (UTC)temp
C
wind
direction
speed
KPH
gust
KPH
rain 1hr
cm
rain 24hr
cm
rain mn
cm
humidity
%
barometer
mb
20260904190047 13 332 1.6 9.7 0.03 0.08 0.05 96 999.4
20260904185543 13 292 3.2 8.0 0.03 0.08 0.05 95 999.3
20260904185043 13 298 0.0 4.8 0.03 0.08 0.05 95 999.2
20260904184551 13 213 0.0 6.4 0.03 0.08 0.05 95 999.1
20260904184043 13 163 1.6 6.4 0.00 0.05 0.05 95 999.1
20260904183544 13 209 0.0 4.8 0.00 0.05 0.05 95 999.0
20260904183043 13 257 0.0 6.4 0.00 0.05 0.05 95 999.0
20260904182541 13 190 1.6 8.0 0.00 0.05 0.05 95 999.0
20260904182041 13 265 1.6 8.0 0.00 0.05 0.05 94 999.0
20260904181550 14 315 1.6 9.7 0.00 0.05 0.05 94 999.1
20260904181042 14 246 1.6 9.7 0.00 0.05 0.05 94 999.1
20260904180541 14 248 1.6 8.0 0.00 0.05 0.05 94 999.0
20260904180043 14 241 1.6 8.0 0.00 0.05 0.05 94 999.1
20260904175544 14 349 0.0 8.0 0.00 0.05 0.05 93 999.0
20260904175041 14 175 1.6 17.7 0.00 0.05 0.05 93 999.1
20260904174541 15 235 4.8 17.7 0.00 0.05 0.05 92 999.1
20260904174041 15 198 1.6 14.5 0.00 0.05 0.05 92 999.1
20260904173540 15 279 1.6 12.9 0.00 0.05 0.05 91 999.1
20260904173058 15 184 0.0 9.7 0.00 0.05 0.05 90 999.0
20260904172539 15 190 3.2 12.9 0.00 0.05 0.05 90 998.9
20260904172040 15 284 3.2 14.5 0.00 0.05 0.05 89 998.8
20260904171542 15 196 0.0 16.1 0.00 0.05 0.05 88 998.6
20260904171038 15 285 1.6 11.3 0.00 0.05 0.05 88 998.6
20260904170538 15 300 1.6 20.9 0.00 0.05 0.05 88 998.6
20260904170041 16 214 3.2 9.7 0.00 0.05 0.05 88 998.6
20260904165541 16 263 0.0 4.8 0.00 0.05 0.05 88 998.5
20260904165039 16 254 0.0 8.0 0.00 0.05 0.05 88 998.5
20260904164538 16 273 1.6 8.0 0.00 0.05 0.05 88 998.5
20260904164037 16 38 1.6 9.7 0.00 0.05 0.05 89 998.6
20260904163537 16 250 0.0 3.2 0.00 0.05 0.05 89 998.6
20260904163038 17 315 0.0 3.2 0.00 0.05 0.05 89 998.6
20260904162537 16 295 0.0 3.2 0.00 0.05 0.05 89 998.6
20260904162036 16 295 0.0 4.8 0.00 0.05 0.05 88 998.6
20260904161544 16 295 0.0 6.4 0.00 0.05 0.05 88 998.5
20260904161036 16 162 1.6 6.4 0.00 0.05 0.05 88 998.7
20260904160539 16 255 0.0 3.2 0.00 0.05 0.05 88 998.7
20260904160039 16 265 0.0 4.8 0.00 0.05 0.05 88 998.7
20260904155535 16 265 0.0 9.7 0.00 0.05 0.05 87 998.7
20260904155037 16 279 0.0 9.7 0.00 0.05 0.05 87 998.7
20260904154535 16 290 1.6 6.4 0.00 0.05 0.05 87 998.7
20260904154035 17 284 1.6 6.4 0.00 0.05 0.05 88 998.6
20260904153536 17 288 0.0 11.3 0.00 0.05 0.05 88 998.6
20260904153038 17 292 3.2 11.3 0.00 0.05 0.05 87 998.7
20260904152535 17 178 3.2 12.9 0.00 0.05 0.05 88 998.7
20260904152032 17 279 3.2 12.9 0.00 0.05 0.05 88 998.7
20260904151541 17 277 1.6 9.7 0.00 0.05 0.05 90 998.8
20260904151033 16 186 1.6 6.4 0.03 0.05 0.05 89 998.7
20260904150530 16 282 1.6 8.0 0.03 0.05 0.05 91 998.7
20260904150034 16 292 1.6 8.0 0.03 0.05 0.05 91 998.7
20260904145529 16 309 1.6 9.7 0.03 0.05 0.05 91 998.7
20260904145028 16 286 1.6 9.7 0.03 0.05 0.05 92 998.9
20260904144527 16 297 1.6 6.4 0.03 0.05 0.05 92 998.8
20260904144028 16 261 3.2 16.1 0.03 0.05 0.05 92 998.8
20260904143527 16 275 1.6 16.1 0.03 0.05 0.05 93 998.8
20260904143027 16 265 1.6 11.3 0.03 0.05 0.05 93 998.9
20260904142528 16 341 1.6 11.3 0.03 0.05 0.05 94 998.8
20260904142025 16 281 1.6 11.3 0.03 0.05 0.05 95 998.8
20260904141525 16 258 1.6 8.0 0.00 0.05 0.03 96 998.8
20260904141026 16 299 3.2 8.0 0.00 0.05 0.03 95 998.8
20260904140522 15 242 3.2 9.7 0.00 0.05 0.03 95 999.0
20260904140021 15 300 0.0 9.7 0.00 0.05 0.03 95 999.1
20260904135522 15 232 1.6 9.7 0.00 0.05 0.03 95 999.2
20260904135022 15 202 1.6 11.3 0.00 0.05 0.03 96 999.2
20260904134521 15 206 1.6 14.5 0.00 0.05 0.03 96 999.2
20260904134019 15 310 4.8 14.5 0.00 0.05 0.03 96 999.3
20260904133519 15 182 1.6 11.3 0.00 0.05 0.03 96 999.3
20260904133023 15 319 3.2 11.3 0.00 0.05 0.03 96 999.3
20260904132518 15 270 3.2 8.0 0.00 0.05 0.03 96 999.3
20260904132016 15 201 1.6 8.0 0.00 0.05 0.03 96 999.3
20260904131515 15 269 1.6 11.3 0.00 0.05 0.03 96 999.2
20260904131015 15 265 1.6 8.0 0.00 0.05 0.03 96 999.2
20260904130516 15 270 1.6 8.0 0.00 0.05 0.03 96 999.4
20260904130015 15 234 1.6 9.7 0.00 0.05 0.03 95 999.5
20260904125515 15 190 3.2 9.7 0.00 0.05 0.03 95 999.5
20260904125015 15 251 1.6 12.9 0.00 0.05 0.03 96 999.5
20260904124514 15 291 3.2 12.9 0.00 0.05 0.03 96 999.4
20260904124013 15 311 1.6 14.5 0.00 0.05 0.03 96 999.2
20260904123517 15 236 1.6 12.9 0.00 0.05 0.03 96 999.2
20260904123014 15 269 3.2 14.5 0.00 0.05 0.03 96 999.3
20260904122515 15 290 4.8 14.5 0.00 0.05 0.03 96 999.3
20260904122015 15 238 1.6 9.7 0.00 0.05 0.03 96 999.2
20260904121511 15 241 1.6 6.4 0.00 0.05 0.03 96 999.3
20260904121013 15 221 1.6 8.0 0.00 0.05 0.03 96 999.4
20260904120509 15 228 1.6 9.7 0.00 0.05 0.03 95 999.4
20260904120012 15 195 3.2 9.7 0.00 0.05 0.03 95 999.4
20260904115508 15 225 1.6 8.0 0.00 0.05 0.03 95 999.5
20260904115007 15 289 1.6 11.3 0.00 0.05 0.03 95 999.6
20260904114507 15 183 3.2 11.3 0.00 0.05 0.03 95 999.7
20260904114007 15 166 1.6 8.0 0.00 0.05 0.03 95 999.7
20260904113506 15 239 1.6 9.7 0.00 0.05 0.03 95 999.6
20260904113019 15 181 3.2 9.7 0.00 0.05 0.03 95 999.8
20260904112508 15 236 1.6 6.4 0.00 0.05 0.03 95 999.8
20260904112004 15 294 0.0 6.4 0.00 0.05 0.03 95 999.9
20260904111511 15 199 1.6 6.4 0.00 0.05 0.03 95 1000.0
20260904111006 15 195 0.0 6.4 0.00 0.05 0.03 95 1000.1
20260904110503 15 184 1.6 8.0 0.00 0.05 0.03 95 1000.1
20260904110003 15 183 1.6 6.4 0.00 0.05 0.03 95 1000.1
20260904105502 15 177 1.6 4.8 0.00 0.05 0.03 95 1000.2
20260904105002 15 238 1.6 6.4 0.00 0.05 0.03 95 1000.2
20260904104501 15 139 0.0 6.4 0.00 0.05 0.03 94 1000.2
20260904104003 15 181 1.6 9.7 0.00 0.05 0.03 94 1000.3
20260904103500 15 164 1.6 9.7 0.00 0.05 0.03 94 1000.2
20260904103106 15 159 0.0 6.4 0.00 0.05 0.03 94 1000.4
20260904102559 15 304 1.6 9.7 0.00 0.05 0.03 94 1000.4
20260904102059 15 180 1.6 11.3 0.00 0.05 0.03 94 1000.4
20260904101559 15 221 1.6 11.3 0.00 0.05 0.03 94 1000.4
20260904101057 15 215 1.6 8.0 0.00 0.05 0.03 94 1000.5
20260904100556 15 182 1.6 9.7 0.00 0.05 0.03 94 1000.5
20260904100103 15 315 3.2 11.3 0.00 0.05 0.03 94 1000.7
20260904095555 15 221 1.6 9.7 0.00 0.05 0.03 94 1000.7
20260904095054 15 198 1.6 9.7 0.00 0.05 0.03 94 1000.7
20260904094553 15 188 3.2 11.3 0.00 0.05 0.03 94 1000.7
20260904094051 15 188 3.2 11.3 0.00 0.05 0.03 94 1000.7
20260904093553 15 141 0.0 8.0 0.00 0.05 0.03 94 1000.9
20260904093054 15 136 0.0 6.4 0.00 0.05 0.03 94 1001.0
20260904092548 15 199 1.6 6.4 0.00 0.05 0.03 94 1001.1
20260904092048 15 180 0.0 6.4 0.00 0.05 0.03 94 1001.1
20260904091549 15 302 0.0 6.4 0.00 0.05 0.03 94 1001.2
20260904091047 15 302 1.6 9.7 0.00 0.05 0.03 94 1001.4
20260904090545 15 182 1.6 9.7 0.00 0.05 0.03 94 1001.4
20260904090051 15 311 3.2 11.3 0.00 0.05 0.03 94 1001.6
20260904085543 15 196 3.2 9.7 0.00 0.05 0.03 94 1001.7
20260904085046 15 190 3.2 9.7 0.00 0.05 0.03 94 1001.8
20260904084542 15 170 3.2 9.7 0.00 0.05 0.03 94 1001.8
20260904084042 15 252 1.6 8.0 0.00 0.05 0.03 94 1001.9
20260904083540 15 245 3.2 9.7 0.00 0.05 0.03 94 1001.9
20260904083040 15 185 1.6 9.7 0.00 0.05 0.03 94 1001.9
20260904082539 15 180 1.6 4.8 0.00 0.05 0.03 94 1002.1
20260904082038 15 198 1.6 8.0 0.00 0.05 0.03 94 1002.1
20260904081544 15 244 3.2 9.7 0.00 0.05 0.03 93 1002.0
20260904081036 15 183 3.2 9.7 0.00 0.05 0.03 93 1002.1
20260904080537 15 180 1.6 8.0 0.00 0.05 0.03 94 1002.1
20260904080136 15 153 3.2 8.0 0.00 0.05 0.03 94 1002.2
20260904075535 14 306 0.0 8.0 0.00 0.05 0.03 94 1002.3
20260904075035 14 161 0.0 6.4 0.00 0.05 0.03 94 1002.3
20260904074533 14 174 0.0 4.8 0.00 0.05 0.03 94 1002.4
20260904074032 14 157 0.0 6.4 0.00 0.05 0.03 94 1002.5
20260904073532 14 136 0.0 6.4 0.00 0.05 0.03 94 1002.5
20260904073036 14 242 1.6 6.4 0.00 0.05 0.03 94 1002.5
20260904072531 14 265 1.6 6.4 0.00 0.05 0.03 94 1002.6
20260904072030 14 153 1.6 6.4 0.00 0.05 0.03 94 1002.6
20260904071530 14 173 0.0 4.8 0.00 0.05 0.03 94 1002.6
20260904071032 14 180 1.6 3.2 0.00 0.05 0.03 95 1002.8
20260904070530 13 193 0.0 3.2 0.00 0.05 0.03 95 1002.7
20260904070027 13 193 0.0 8.0 0.00 0.05 0.03 95 1002.8
20260904065529 13 193 0.0 8.0 0.00 0.05 0.03 95 1002.9
20260904065025 13 215 0.0 3.2 0.00 0.05 0.03 95 1002.9
20260904064524 13 215 0.0 3.2 0.00 0.05 0.03 95 1003.1
20260904064024 13 215 0.0 1.6 0.00 0.05 0.03 94 1003.2
20260904063524 13 215 0.0 3.2 0.00 0.05 0.03 94 1003.2
20260904063124 13 215 0.0 3.2 0.00 0.05 0.03 94 1003.3
20260904062522 13 215 0.0 3.2 0.00 0.05 0.03 94 1003.3
20260904062025 13 215 0.0 4.8 0.00 0.05 0.03 94 1003.3
20260904061523 13 215 0.0 4.8 0.00 0.05 0.03 94 1003.5
20260904061021 13 180 0.0 4.8 0.00 0.05 0.03 94 1003.5
20260904060519 13 245 0.0 3.2 0.00 0.05 0.03 94 1003.5
20260904060018 13 211 0.0 1.6 0.00 0.05 0.03 93 1003.7
20260904055517 13 211 0.0 1.6 0.00 0.05 0.03 93 1003.7
20260904055018 13 211 0.0 0.0 0.00 0.05 0.03 93 1003.8
20260904054516 13 211 0.0 0.0 0.00 0.05 0.03 93 1003.9
20260904054015 13 211 0.0 1.6 0.00 0.05 0.03 93 1004.0
20260904053514 13 211 0.0 3.2 0.00 0.05 0.03 92 1003.9
20260904053017 13 211 0.0 3.2 0.00 0.05 0.03 92 1004.0
20260904052512 13 211 0.0 1.6 0.00 0.05 0.03 92 1004.2
20260904052012 13 211 0.0 1.6 0.00 0.05 0.03 92 1004.2
20260904051525 13 211 0.0 1.6 0.00 0.05 0.03 91 1004.3
20260904051010 13 211 0.0 3.2 0.00 0.05 0.03 91 1004.3
20260904050509 13 211 0.0 3.2 0.00 0.05 0.03 91 1004.3
20260904050009 13 211 0.0 3.2 0.00 0.05 0.03 91 1004.3
20260904045509 13 211 0.0 3.2 0.00 0.05 0.03 91 1004.4
20260904045011 13 211 0.0 3.2 0.00 0.05 0.03 91 1004.4
20260904044508 13 211 0.0 4.8 0.00 0.05 0.03 91 1004.5
20260904044007 13 229 0.0 6.4 0.00 0.05 0.03 91 1004.6
20260904043508 13 254 1.6 6.4 0.00 0.05 0.03 91 1004.7
20260904043010 13 263 0.0 4.8 0.00 0.05 0.03 91 1004.8
20260904042510 13 202 0.0 6.4 0.00 0.05 0.03 91 1004.8
20260904042006 13 269 0.0 6.4 0.00 0.05 0.03 91 1004.8
20260904041513 13 161 0.0 4.8 0.00 0.05 0.03 91 1004.7
20260904041005 13 214 1.6 4.8 0.00 0.05 0.03 91 1004.6
20260904040508 13 315 0.0 4.8 0.00 0.05 0.03 91 1004.7
20260904040006 13 294 0.0 4.8 0.00 0.05 0.03 91 1004.8
20260904035504 13 188 0.0 6.4 0.00 0.05 0.03 91 1004.8
20260904035007 13 184 0.0 4.8 0.00 0.05 0.03 90 1004.9
20260904034505 13 331 0.0 4.8 0.00 0.05 0.03 90 1004.8
20260904034007 13 241 1.6 8.0 0.00 0.05 0.03 90 1004.8
20260904033502 13 233 1.6 8.0 0.00 0.05 0.03 90 1005.1
20260904033002 13 187 1.6 8.0 0.00 0.05 0.03 90 1005.1
20260904032502 13 261 0.0 8.0 0.00 0.05 0.03 90 1005.1
20260904032100 13 314 1.6 8.0 0.00 0.05 0.03 90 1005.1
20260904031600 13 304 1.6 11.3 0.00 0.05 0.03 90 1005.2
20260904031100 13 223 3.2 11.3 0.00 0.05 0.03 90 1005.1
20260904030600 13 257 1.6 11.3 0.00 0.05 0.03 90 1005.1
20260904025602 13 159 3.2 12.9 0.00 0.05 0.03 90 1005.1
20260904025059 13 232 3.2 12.9 0.00 0.05 0.03 90 1005.2
20260904024600 13 333 1.6 14.5 0.00 0.05 0.03 90 1005.2
20260904024057 13 290 3.2 14.5 0.00 0.05 0.03 90 1005.3
20260904023557 13 186 0.0 6.4 0.00 0.05 0.03 90 1005.4
20260904023058 13 266 3.2 8.0 0.00 0.05 0.03 90 1005.3
20260904022557 13 232 1.6 8.0 0.00 0.05 0.03 90 1005.3
20260904022055 13 203 1.6 8.0 0.00 0.05 0.03 90 1005.4
20260904021556 13 276 1.6 11.3 0.00 0.05 0.03 90 1005.4
20260904021056 13 188 3.2 12.9 0.00 0.05 0.03 90 1005.5
20260904020555 13 268 3.2 12.9 0.00 0.05 0.03 90 1005.7
20260904020055 13 187 0.0 8.0 0.00 0.05 0.03 90 1005.5
20260904015553 13 298 3.2 8.0 0.00 0.05 0.03 90 1005.5
20260904015053 13 250 1.6 8.0 0.00 0.05 0.03 90 1005.7
20260904014559 13 185 3.2 16.1 0.00 0.05 0.03 90 1005.7
20260904014053 13 270 0.0 16.1 0.00 0.05 0.03 90 1005.9
20260904013551 13 260 1.6 14.5 0.00 0.05 0.03 90 1005.9
20260904013055 13 292 1.6 14.5 0.00 0.05 0.03 90 1005.9
20260904012552 13 274 3.2 12.9 0.00 0.05 0.03 90 1006.0
20260904012051 13 164 3.2 12.9 0.00 0.05 0.03 91 1006.0
20260904011551 14 188 1.6 17.7 0.00 0.05 0.03 91 1006.1
20260904011049 14 240 3.2 17.7 0.00 0.05 0.03 91 1006.1
20260904010548 14 167 3.2 11.3 0.00 0.05 0.03 91 1006.0
20260904010049 14 161 1.6 14.5 0.00 0.05 0.03 91 1006.0
20260904005547 14 290 3.2 14.5 0.00 0.08 0.03 92 1006.0
20260904005047 14 220 3.2 14.5 0.00 0.08 0.03 92 1006.0
20260904004647 14 192 1.6 14.5 0.03 0.08 0.03 92 1006.1
20260904004049 14 286 1.6 14.5 0.03 0.08 0.03 92 1006.0
20260904003550 14 253 4.8 12.9 0.03 0.08 0.03 92 1006.0
20260904003046 14 305 1.6 19.3 0.03 0.08 0.03 92 1006.1
20260904002547 14 263 3.2 8.0 0.03 0.08 0.03 92 1006.0
20260904002045 14 295 3.2 14.5 0.03 0.08 0.03 92 1006.2
20260904001544 14 246 1.6 14.5 0.03 0.08 0.03 92 1006.1
20260904001043 14 219 4.8 14.5 0.03 0.08 0.03 92 1006.1
20260904000543 14 261 3.2 14.5 0.03 0.08 0.03 92 1006.2
20260904000043 14 223 4.8 14.5 0.03 0.08 0.03 92 1006.2
20260903235542 14 192 3.2 8.0 0.03 0.08 0.03 92 1006.2
20260903235042 14 279 1.6 9.7 0.00 0.05 0.00 92 1006.3
20260903234542 14 88 1.6 12.9 0.00 0.05 0.00 92 1006.2
20260903234042 14 288 4.8 12.9 0.00 0.05 0.00 92 1006.3
20260903233541 14 257 3.2 8.0 0.00 0.05 0.00 92 1006.3
20260903233042 14 202 1.6 8.0 0.00 0.05 0.00 92 1006.2
20260903232541 14 129 0.0 6.4 0.00 0.05 0.00 92 1006.1
20260903232041 14 191 1.6 12.9 0.00 0.05 0.00 92 1006.2
20260903231557 14 263 1.6 12.9 0.00 0.05 0.00 92 1006.2
20260903231040 14 351 1.6 9.7 0.00 0.05 0.00 92 1006.4
20260903230540 14 191 1.6 9.7 0.00 0.05 0.00 92 1006.4
20260903230041 14 302 1.6 11.3 0.00 0.05 0.00 92 1006.3
20260903225540 14 272 3.2 6.4 0.00 0.05 0.00 92 1006.3
20260903225039 14 246 1.6 11.3 0.00 0.05 0.00 92 1006.4
20260903224539 14 136 1.6 11.3 0.00 0.05 0.00 92 1006.2
20260903224042 14 233 1.6 8.0 0.00 0.05 0.00 92 1006.3
20260903223539 14 220 3.2 12.9 0.00 0.05 0.00 92 1006.3
20260903223044 14 232 4.8 12.9 0.00 0.05 0.00 93 1006.2
20260903222537 14 319 1.6 9.7 0.00 0.05 0.00 92 1006.3
20260903222037 14 194 1.6 12.9 0.00 0.05 0.00 92 1006.5
20260903221539 14 302 3.2 12.9 0.00 0.05 0.00 92 1006.5
20260903221036 14 290 3.2 9.7 0.00 0.05 0.00 92 1006.5
20260903220537 14 285 1.6 8.0 0.00 0.05 0.00 92 1006.4
20260903220056 14 192 3.2 14.5 0.00 0.05 0.00 92 1006.6
20260903215537 14 263 4.8 14.5 0.00 0.05 0.05 92 1006.6
20260903215033 14 245 3.2 14.5 0.00 0.05 0.05 92 1006.6
20260903214534 14 317 1.6 14.5 0.00 0.05 0.05 92 1006.5
20260903214033 14 336 1.6 8.0 0.00 0.05 0.05 92 1006.5
20260903213532 14 149 3.2 11.3 0.00 0.05 0.05 92 1006.4
20260903213033 14 270 3.2 11.3 0.00 0.05 0.05 92 1006.5
20260903212533 14 323 3.2 17.7 0.00 0.05 0.05 92 1006.4
20260903212034 14 195 1.6 17.7 0.00 0.05 0.05 92 1006.4
20260903211532 14 221 3.2 16.1 0.00 0.05 0.05 92 1006.4
20260903211031 15 185 3.2 16.1 0.00 0.05 0.05 92 1006.3
20260903210536 15 229 3.2 16.1 0.03 0.05 0.05 92 1006.4
20260903210035 15 213 4.8 14.5 0.03 0.05 0.05 92 1006.5
20260903205531 15 204 3.2 11.3 0.03 0.05 0.05 92 1006.4
20260903205031 15 234 1.6 11.3 0.03 0.05 0.05 92 1006.4
20260903204531 15 286 3.2 12.9 0.03 0.05 0.05 92 1006.4
20260903204032 15 267 4.8 12.9 0.03 0.05 0.05 92 1006.4
20260903203533 15 186 3.2 16.1 0.03 0.05 0.05 92 1006.4
20260903203030 15 229 3.2 16.1 0.03 0.05 0.05 92 1006.3
20260903202534 15 196 4.8 17.7 0.03 0.05 0.05 92 1006.3
20260903202032 15 169 3.2 16.1 0.03 0.05 0.05 93 1006.2
20260903201529 15 345 3.2 19.3 0.03 0.05 0.05 93 1006.3
20260903201028 15 288 3.2 19.3 0.03 0.05 0.05 93 1006.3
20260903200528 15 327 4.8 12.9 0.00 0.05 0.05 93 1006.3
20260903200041 15 298 3.2 12.9 0.00 0.05 0.05 93 1006.3
20260903195529 15 265 1.6 12.9 0.00 0.05 0.05 93 1006.3
20260903195028 15 279 3.2 14.5 0.00 0.05 0.05 93 1006.3
20260903194540 15 227 3.2 14.5 0.00 0.05 0.05 93 1006.3
20260903194027 15 303 4.8 14.5 0.00 0.05 0.05 93 1006.4
20260903193529 15 287 4.8 17.7 0.00 0.05 0.05 93 1006.3
20260903193027 15 300 6.4 17.7 0.00 0.05 0.05 93 1006.4
20260903192530 15 231 3.2 16.1 0.00 0.05 0.05 93 1006.4
20260903192026 15 236 4.8 12.9 0.00 0.05 0.05 93 1006.4
20260903191526 15 189 3.2 17.7 0.00 0.05 0.05 93 1006.5
20260903191027 15 283 1.6 17.7 0.00 0.05 0.05 93 1006.4
20260903190528 15 98 3.2 14.5 0.00 0.05 0.05 93 1006.3